Date String (YYYY-MM-DD hh:mm:ss) UTC,Instrument flags,Ambient pressure (hPa),Sample flow (lpm),Bypass flow (lpm),Sample temperature (°C),Ambient temperature (°C),ASC tube jacket temperature (°C),LED temperature (°C),Box temperature (°C),Sample RH (%),Span deviation,Mass concentration (μg/m³),Mass concentration (μg/m³),Mass concentration (μg/m³)
DateTimeUTC,F1_M11,P_M11,Q1_M11,Q2_M11,T1_M11,T2_M11,T3_M11,T4_M11,T5_M11,U1_M11,ZSPAN_M11,X0_M11,X2_M11,X1_M11
2021-11-22 20:00:00,,0829.8,5.01,0.00,29.1,28.4,00.0,38.1,30.9,08.1,0000.0,0014.12,0004.97,0004.29
2021-11-22 20:01:00,,0829.8,4.99,0.00,29.1,28.4,00.0,38.1,31.0,08.1,0000.0,0014.48,0005.15,0004.44
2021-11-22 20:02:00,,0829.7,5.01,0.00,29.1,28.4,00.0,38.1,30.9,08.2,0000.0,0014.72,0005.30,0004.58
2021-11-22 20:03:00,,0829.8,5.00,0.00,29.2,28.4,00.0,38.1,30.9,08.2,0000.0,0015.49,0005.44,0004.71
2021-11-22 20:04:00,,0829.8,4.99,0.00,29.2,28.4,00.0,38.1,31.0,08.3,0000.0,0014.80,0005.60,0004.87
2021-11-22 20:05:00,,0829.8,5.02,0.00,29.2,28.4,00.0,38.1,31.0,08.3,0000.0,0015.06,0005.75,0005.06
2021-11-22 20:06:00,,0829.9,5.00,0.00,29.2,28.4,00.0,38.1,31.0,08.4,0000.0,0015.99,0005.93,0005.25
2021-11-22 20:07:00,,0829.9,5.00,0.00,29.2,28.4,00.0,38.1,31.0,08.4,0000.0,0016.72,0006.11,0005.43
2021-11-22 20:08:00,,0829.8,5.01,0.00,29.2,28.4,00.0,38.1,31.0,08.4,0000.0,0017.14,0006.25,0005.55
2021-11-22 20:09:00,,0829.8,4.99,0.00,29.2,28.4,00.0,38.1,31.0,08.5,0000.0,0016.25,0006.38,0005.67
2021-11-22 20:10:00,,0829.8,4.99,0.00,29.2,28.4,00.0,38.1,31.0,08.5,0000.0,0015.45,0006.48,0005.77
2021-11-22 20:11:00,,0829.8,5.01,0.00,29.2,28.4,00.0,38.2,31.0,08.7,0000.0,0016.32,0006.63,0005.89
2021-11-22 20:12:00,,0829.8,5.01,0.00,29.2,28.5,00.0,38.2,31.0,08.7,0000.0,0016.47,0006.75,0006.01
2021-11-22 20:13:00,,0829.8,5.00,0.00,29.2,28.5,00.0,38.2,31.0,08.7,0000.0,0017.03,0006.91,0006.15
2021-11-22 20:14:00,,0829.8,5.00,0.00,29.2,28.5,00.0,38.2,31.0,08.7,0000.0,0016.76,0007.03,0006.25
2021-11-22 20:15:00,,0829.8,4.99,0.00,29.2,28.5,00.0,38.2,31.0,08.8,0000.0,0016.42,0007.13,0006.36
2021-11-22 20:16:00,,0829.8,5.01,0.00,29.3,28.5,00.0,38.2,31.1,08.9,0000.0,0015.94,0007.23,0006.43
2021-11-22 20:17:00,,0829.7,4.99,0.00,29.3,28.6,00.0,38.2,31.1,08.9,0000.0,0015.32,0007.32,0006.48
2021-11-22 20:18:00,,0829.8,5.00,0.00,29.3,28.6,00.0,38.2,31.1,08.8,0000.0,0015.27,0007.41,0006.52
2021-11-22 20:19:00,,0829.8,5.01,0.00,29.3,28.6,00.0,38.2,31.1,08.8,0000.0,0016.05,0007.49,0006.59
2021-11-22 20:20:00,,0829.8,4.99,0.00,29.3,28.6,00.0,38.2,31.1,08.8,0000.0,0017.64,0007.64,0006.66
2021-11-22 20:21:00,,0829.7,5.01,0.00,29.3,28.6,00.0,38.3,31.1,08.8,0000.0,0018.08,0007.78,0006.72
2021-11-22 20:22:00,,0829.7,5.01,0.00,29.3,28.6,00.0,38.3,31.1,08.7,0000.0,0017.91,0007.83,0006.77
2021-11-22 20:23:00,,0829.7,5.00,0.00,29.4,28.7,00.0,38.3,31.1,08.7,0000.0,0018.22,0007.89,0006.83
2021-11-22 20:24:00,,0829.7,4.99,0.00,29.4,28.7,00.0,38.3,31.2,08.7,0000.0,0018.00,0007.91,0006.89
2021-11-22 20:25:00,,0829.7,5.02,0.00,29.4,28.7,00.0,38.3,31.2,08.6,0000.0,0018.18,0007.95,0006.95
2021-11-22 20:26:00,,0829.7,5.00,0.00,29.4,28.7,00.0,38.3,31.2,08.6,0000.0,0019.15,0007.99,0006.97
2021-11-22 20:27:00,,0829.7,4.99,0.00,29.4,28.8,00.0,38.3,31.2,08.5,0000.0,0019.80,0008.02,0006.99
2021-11-22 20:28:00,,0829.6,5.02,0.00,29.5,28.8,00.0,38.4,31.2,08.4,0000.0,0021.18,0008.00,0006.98
2021-11-22 20:29:00,,0829.7,4.99,0.00,29.5,28.8,00.0,38.4,31.3,08.6,0000.0,0021.09,0007.96,0007.00
2021-11-22 20:30:00,,0829.7,5.00,0.00,29.5,28.8,00.0,38.4,31.3,08.5,0000.0,0020.00,0007.97,0007.01
2021-11-22 20:31:00,,0829.6,4.99,0.00,29.5,28.9,00.0,38.4,31.3,08.4,0000.0,0018.88,0007.90,0007.00
2021-11-22 20:32:00,,0829.9,5.00,0.00,29.5,28.9,00.0,38.4,31.3,08.4,0000.0,0018.10,0007.81,0007.01
2021-11-22 20:33:00,,0829.7,5.00,0.00,29.6,28.9,00.0,38.5,31.4,08.4,0000.0,0018.29,0007.77,0006.98
2021-11-22 20:34:00,,0830.0,5.00,0.00,29.6,28.9,00.0,38.5,31.4,08.2,0000.0,0019.21,0007.71,0006.90
2021-11-22 20:35:00,,0829.7,4.99,0.00,29.6,29.0,00.0,38.5,31.4,08.1,0000.0,0019.14,0007.59,0006.80
2021-11-22 20:36:00,,0829.9,5.00,0.00,29.7,29.0,00.0,38.5,31.4,08.0,0000.0,0019.16,0007.46,0006.68
2021-11-22 20:37:00,,0829.8,5.00,0.00,29.7,29.0,00.0,38.5,31.4,08.0,0000.0,0018.22,0007.36,0006.59
2021-11-22 20:38:00,,0829.7,5.01,0.00,29.7,29.1,00.0,38.6,31.5,07.9,0000.0,0017.44,0007.25,0006.49
2021-11-22 20:39:00,,0829.8,5.00,0.00,29.7,29.1,00.0,38.6,31.5,07.8,0000.0,0017.17,0007.22,0006.43
2021-11-22 20:40:00,,0829.6,4.98,0.00,29.7,29.1,00.0,38.6,31.5,07.8,0000.0,0018.25,0007.18,0006.33
2021-11-22 20:41:00,,0829.7,5.01,0.00,29.8,29.1,00.0,38.6,31.6,07.8,0000.0,0019.56,0007.04,0006.20
2021-11-22 20:42:00,,0829.7,4.98,0.00,29.8,29.2,00.0,38.7,31.6,07.9,0000.0,0020.26,0006.93,0006.09
2021-11-22 20:43:00,,0829.8,5.01,0.00,29.8,29.2,00.0,38.7,31.6,07.9,0000.0,0021.74,0006.86,0005.99
2021-11-22 20:44:00,,0829.6,4.99,0.00,29.8,29.2,00.0,38.7,31.6,07.9,0000.0,0021.35,0006.81,0005.92
2021-11-22 20:45:00,,0829.8,5.01,0.00,29.8,29.2,00.0,38.7,31.6,07.9,0000.0,0020.00,0006.77,0005.89
2021-11-22 20:46:00,,0829.8,5.00,0.00,29.9,29.2,00.0,38.7,31.7,07.9,0000.0,0019.87,0006.83,0005.91
2021-11-22 20:47:00,,0829.6,5.00,0.00,29.9,29.2,00.0,38.8,31.7,08.0,0000.0,0019.78,0006.95,0005.97
2021-11-22 20:48:00,,0829.6,4.99,0.00,29.9,29.2,00.0,38.8,31.7,08.0,0000.0,0020.71,0007.05,0006.02
2021-11-22 20:49:00,,0829.6,5.01,0.00,29.9,29.3,00.0,38.8,31.7,08.3,0000.0,0022.89,0007.23,0006.12
2021-11-22 20:50:00,,0829.8,5.00,0.00,29.9,29.3,00.0,38.8,31.7,08.3,0000.0,0024.08,0007.44,0006.27
2021-11-22 20:51:00,,0829.8,5.00,0.00,30.0,29.3,00.0,38.8,31.7,08.3,0000.0,0024.50,0007.65,0006.43
2021-11-22 20:52:00,,0829.6,5.01,0.00,30.0,29.3,00.0,38.8,31.8,08.2,0000.0,0023.99,0007.92,0006.59
2021-11-22 20:53:00,,0829.6,4.98,0.00,30.0,29.3,00.0,38.9,31.7,08.2,0002.1,0024.64,0008.21,0006.74
2021-11-22 20:54:00,,0829.6,5.01,0.00,30.0,29.3,00.0,38.9,31.7,08.2,0004.8,0024.09,0008.37,0006.84
2021-11-22 20:55:00,,0829.6,5.00,0.00,30.0,29.3,00.0,38.9,31.7,08.2,0004.9,0025.33,0008.58,0006.95
2021-11-22 20:56:00,,0829.5,4.99,0.00,30.0,29.4,00.0,38.9,31.8,08.2,0004.4,0026.66,0008.78,0007.06
2021-11-22 20:57:00,,0829.5,5.00,0.00,30.0,29.4,00.0,38.9,31.8,08.1,0004.5,0028.74,0008.90,0007.14
2021-11-22 20:58:00,,0829.5,5.01,0.00,30.1,29.4,00.0,39.0,31.8,08.0,0004.5,0030.96,0009.00,0007.18
2021-11-22 20:59:00,,0829.5,5.00,0.00,30.1,29.4,00.0,39.0,31.8,08.0,0004.5,0032.78,0009.05,0007.22
